This demonstration page uses our WeatherBlox Daily Observations layout. Learn more.

Left ArrowRight Arrow

38.20091, -84.87328

Hourly Observations for February 18, 2020

Temp ( °F °C ) Dew Point ( °F °C ) Humidity (%) Winds ( mph kmh ) Pressure ( in mb ) Visibility ( mi km ) Precip ( " mm )
12:39 am 00:39 Cloudy 56 13.3 47 8.3 72 72 SSW 14 22 29.93 1014 10 16 0.00 0.00
12:53 am 00:53 Partly Cloudy 56 13.3 47 8.3 72 72 SSW 14 22 29.92 1013 10 16 0.00 0.00
1:53 am 01:53 Mostly Cloudy 56 13.3 47 8.3 72 72 SSW 10 17 29.93 1014 10 16 0.00 0.00
2:53 am 02:53 Cloudy 56 13.3 48 8.9 75 75 SSW 13 20 29.93 1014 10 16 0.00 0.00
3:13 am 03:13 Cloudy 56 13.3 48 8.9 75 75 SSW 10 17 29.94 1014 10 16 0.00 0.00
3:53 am 03:53 Cloudy 56 13.3 48 8.9 75 75 SSW 10 17 29.93 1014 10 16 0.00 0.00
4:53 am 04:53 Cloudy 54 12.2 49 9.4 83 83 SSW 7 11 29.94 1014 10 16 0.00 0.00
5:46 am 05:46 Cloudy with Light Rain 53 11.7 51 10.6 93 93 SSW 7 11 29.97 1015 5 8 0.02 0.51
5:53 am 05:53 Cloudy with Light Rain 52 11.1 51 10.6 97 97 SSW 7 11 29.97 1015 6 10 0.02 0.51
6:27 am 06:27 Cloudy with Light Rain 52 11.1 51 10.6 97 97 SSW 7 11 29.98 1015 6 10 0.01 0.25
6:42 am 06:42 Cloudy with Mist and Fog 53 11.7 51 10.6 93 93 SSW 7 11 29.97 1015 5 8 0.02 0.51
6:49 am 06:49 Cloudy with Light Rain 54 12 52 11 94 94 SSW 7 11 29.97 1015 4 6 0.02 0.51
6:53 am 06:53 Cloudy with Light Rain 53 11.7 51 10.6 93 93 SSW 6 9 29.97 1015 4 6 0.02 0.51
7:04 am 07:04 Cloudy 52 11.1 51 10.6 97 97 SSW 5 7 29.98 1015 7 11 0.00 0.00
7:11 am 07:11 Cloudy with Light Rain 52 11.1 51 10.6 97 97 SSW 5 7 29.98 1015 4 6 0.01 0.25
7:41 am 07:41 Cloudy with Light Rain 52 11.1 51 10.6 97 97 SW 3 6 29.99 1015 2 3 0.02 0.51
7:49 am 07:49 Cloudy with Light Rain 52 11 52 11 100 100 SSW 3 6 29.99 1015 2 2 0.02 0.51
7:53 am 07:53 Cloudy with Light Rain 52 11.1 51 10.6 97 97 Calm 29.98 1015 2 2 0.02 0.51
8:15 am 08:15 Cloudy with Light Rain 52 11.1 51 10.6 97 97 SSW 5 7 30.00 1016 2 3 0.01 0.25
8:43 am 08:43 Cloudy with Light Rain 53 11.7 51 10.6 93 93 SSW 5 7 30.00 1016 2 2 0.02 0.51
8:53 am 08:53 Cloudy with Mist and Fog 53 11.7 51 10.6 93 93 SSW 6 9 30.00 1016 3 4 0.03 0.76
9:03 am 09:03 Cloudy with Mist and Fog 53 11.7 52 11.1 96 96 SSW 6 9 30.00 1016 2 3 0.00 0.00
9:25 am 09:25 Cloudy with Mist and Fog 54 12.2 52 11.1 93 93 SSW 6 9 30.00 1016 3 5 0.01 0.25
9:29 am 09:29 Cloudy with Light Rain 53 11.7 52 11.1 96 96 SW 5 7 30.01 1016 3 4 0.01 0.25
9:36 am 09:36 Cloudy with Rain 53 11.7 52 11.1 96 96 SSW 3 6 30.00 1016 2 3 0.02 0.51
9:45 am 09:45 Cloudy with Light Rain 54 12.2 52 11.1 93 93 SSW 7 11 30.01 1016 3 4 0.03 0.76
9:53 am 09:53 Cloudy with Rain 54 12.2 52 11.1 93 93 SSW 6 9 30.00 1016 3 4 0.04 1.02
9:59 am 09:59 Cloudy with Rain 54 12.2 53 11.7 97 97 SSW 5 7 30.00 1016 2 3 0.02 0.51
10:05 am 10:05 Cloudy with Light Rain 54 12.2 52 11.1 93 93 SW 7 11 30.01 1016 3 4 0.02 0.51
10:07 am 10:07 Cloudy with Light Rain 54 12.2 52 11.1 93 93 SSW 6 9 30.01 1016 3 5 0.02 0.51
10:21 am 10:21 Cloudy with Light Rain 54 12.2 52 11.1 93 93 SW 7 11 30.02 1017 6 10 0.03 0.76
10:34 am 10:34 Cloudy with Light Rain 54 12.2 52 11.1 93 93 NW 3 6 30.02 1017 3 4 0.04 1.02
10:45 am 10:45 Cloudy with Light Rain 54 12.2 53 11.7 97 97 Calm 30.02 1017 5 8 0.05 1.27
10:53 am 10:53 Cloudy with Light Rain 54 12.2 52 11.1 93 93 WNW 5 7 30.01 1016 5 8 0.05 1.27
11:23 am 11:23 Cloudy with Light Rain 54 12.2 52 11.1 93 93 WNW 6 9 30.04 1017 6 10 0.01 0.25
11:42 am 11:42 Cloudy with Light Rain 54 12.2 52 11.1 93 93 WNW 8 13 30.04 1017 7 11 0.03 0.76
11:53 am 11:53 Cloudy with Light Rain 54 12.2 51 10.6 90 90 NW 10 17 30.04 1017 5 8 0.03 0.76
12:16 pm 12:16 Cloudy with Light Rain 54 12.2 52 11.1 93 93 NW 8 13 30.04 1017 6 10 0.00 0.00
12:26 pm 12:26 Cloudy 54 12.2 51 10.6 90 90 NW 7 11 30.04 1017 8 13 0.00 0.00
12:53 pm 12:53 Cloudy 54 12.2 51 10.6 90 90 NNW 9 15 30.04 1017 10 16 0.00 0.00
1:07 pm 13:07 Cloudy with Light Rain 53 11.7 49 9.4 86 86 NW 14 22 30.05 1018 9 14 0.00 0.00
1:28 pm 13:28 Cloudy 52 11.1 49 9.4 89 89 NNW 17 28 30.07 1018 9 14 0.01 0.25
1:53 pm 13:53 Cloudy with Mist and Fog 50 10 47 8.3 89 89 NNW 14 22 30.05 1018 6 10 0.01 0.25
2:18 pm 14:18 Cloudy 50 10 46 7.8 86 86 NNW 8 13 30.06 1018 8 13 0.00 0.00
2:53 pm 14:53 Cloudy 49 9.4 44 6.7 83 83 NNW 8 13 30.07 1018 10 16 0.00 0.00
3:53 pm 15:53 Cloudy 47 8.3 40 4.4 77 77 NNW 12 19 30.09 1019 10 16 0.00 0.00
4:53 pm 16:53 Cloudy 46 7.8 39 3.9 77 77 N 7 11 30.12 1020 10 16 0.00 0.00
5:30 pm 17:30 Cloudy 45 7.2 39 3.9 80 80 NNW 8 13 30.16 1021 10 16 0.00 0.00
5:51 pm 17:51 Cloudy 45 7 37 3 76 76 NW 12 19 30.19 1022 10 16 0.00 0.00
5:53 pm 17:53 Cloudy 44 6.7 37 2.8 76 76 NNW 10 17 30.17 1022 10 16 0.00 0.00
6:07 pm 18:07 Cloudy with Haze 44 6.7 37 2.8 76 76 NNW 9 15 30.21 1023 2 3 0.00 0.00
6:16 pm 18:16 Cloudy 44 6.7 37 2.8 76 76 NNW 9 15 30.21 1023 10 16 0.00 0.00
6:53 pm 18:53 Cloudy 43 6.1 35 1.7 74 74 NNW 8 13 30.22 1023 10 16 0.00 0.00
7:53 pm 19:53 Cloudy 42 5.6 36 2.2 79 79 NNW 7 11 30.24 1024 10 16 0.00 0.00
8:53 pm 20:53 Mostly Cloudy 41 5 35 1.7 79 79 NNW 9 15 30.25 1024 10 16 0.00 0.00
9:53 pm 21:53 Clear 41 5 33 0.6 73 73 N 7 11 30.27 1025 10 16 0.00 0.00
10:53 pm 22:53 Mostly Cloudy 38 3.3 33 0.6 83 83 N 3 6 30.29 1026 10 16 0.00 0.00
11:53 pm 23:53 Cloudy 37 2.8 33 0.6 86 86 NNW 8 13 30.31 1027 7 11 0.00 0.00

Powered by AerisWeather